Year,Month,Day,Hour,Minute,Value (Times are PST for temperature in C)
2014,08,11,00,00,17.80
2014,08,11,00,01,17.70
2014,08,11,00,02,17.70
2014,08,11,00,03,17.70
2014,08,11,00,04,17.70
2014,08,11,00,05,17.70
2014,08,11,00,06,17.60
2014,08,11,00,07,17.60
2014,08,11,00,08,17.60
2014,08,11,00,09,17.60
2014,08,11,00,10,17.60
2014,08,11,00,11,17.60
2014,08,11,00,12,17.60
2014,08,11,00,13,17.60
2014,08,11,00,14,17.50
2014,08,11,00,15,17.50
2014,08,11,00,16,17.50
2014,08,11,00,17,17.50
2014,08,11,00,18,17.50
2014,08,11,00,19,17.50
2014,08,11,00,20,17.50
2014,08,11,00,21,17.40
2014,08,11,00,22,17.40
2014,08,11,00,23,17.40
2014,08,11,00,24,17.40
2014,08,11,00,25,17.40
2014,08,11,00,26,17.40
2014,08,11,00,27,17.40
2014,08,11,00,28,17.40
2014,08,11,00,29,17.30
2014,08,11,00,30,17.30
2014,08,11,00,31,17.30
2014,08,11,00,32,17.30
2014,08,11,00,33,17.30
2014,08,11,00,34,17.20
2014,08,11,00,35,17.20
2014,08,11,00,36,17.20
2014,08,11,00,37,17.20
2014,08,11,00,38,17.10
2014,08,11,00,39,17.10
2014,08,11,00,40,17.10
2014,08,11,00,41,17.10
2014,08,11,00,42,17.10
2014,08,11,00,43,17.00
2014,08,11,00,44,17.00
2014,08,11,00,45,17.00
2014,08,11,00,46,17.00
2014,08,11,00,47,17.00
2014,08,11,00,48,17.00
2014,08,11,00,49,16.90
2014,08,11,00,50,16.90
2014,08,11,00,51,16.90
2014,08,11,00,52,16.90
2014,08,11,00,53,16.90
2014,08,11,00,54,16.80
2014,08,11,00,55,16.80
2014,08,11,00,56,16.80
2014,08,11,00,57,16.80
2014,08,11,00,58,16.80
2014,08,11,00,59,16.70
2014,08,11,01,00,16.70
2014,08,11,01,01,16.70
2014,08,11,01,02,16.70
2014,08,11,01,03,16.70
2014,08,11,01,04,16.70
2014,08,11,01,05,16.70
2014,08,11,01,06,16.70
2014,08,11,01,07,16.70
2014,08,11,01,08,16.70
2014,08,11,01,09,16.70
2014,08,11,01,10,16.70
2014,08,11,01,11,16.60
2014,08,11,01,12,16.60
2014,08,11,01,13,16.60
2014,08,11,01,14,16.60
2014,08,11,01,15,16.60
2014,08,11,01,16,16.60
2014,08,11,01,17,16.60
2014,08,11,01,18,16.60
2014,08,11,01,19,16.60
2014,08,11,01,20,16.60
2014,08,11,01,21,16.60
2014,08,11,01,22,16.60
2014,08,11,01,23,16.60
2014,08,11,01,24,16.60
2014,08,11,01,25,16.60
2014,08,11,01,26,16.60
2014,08,11,01,27,16.60
2014,08,11,01,28,16.50
2014,08,11,01,29,16.50
2014,08,11,01,30,16.50
2014,08,11,01,31,16.40
2014,08,11,01,32,16.40
2014,08,11,01,33,16.40
2014,08,11,01,34,16.40
2014,08,11,01,35,16.40
2014,08,11,01,36,16.40
2014,08,11,01,37,16.40
2014,08,11,01,38,16.40
2014,08,11,01,39,16.40
2014,08,11,01,40,16.40
2014,08,11,01,41,16.30
2014,08,11,01,42,16.30
2014,08,11,01,43,16.30
2014,08,11,01,44,16.30
2014,08,11,01,45,16.30
2014,08,11,01,46,16.30
2014,08,11,01,47,16.30
2014,08,11,01,48,16.30
2014,08,11,01,49,16.30
2014,08,11,01,50,16.30
2014,08,11,01,51,16.30
2014,08,11,01,52,16.30
2014,08,11,01,53,16.30
2014,08,11,01,54,16.30
2014,08,11,01,55,16.30
2014,08,11,01,56,16.30
2014,08,11,01,57,16.30
2014,08,11,01,58,16.30
2014,08,11,01,59,16.30
2014,08,11,02,00,16.30
2014,08,11,02,01,16.30
2014,08,11,02,02,16.30
2014,08,11,02,03,16.30
2014,08,11,02,04,16.30
2014,08,11,02,05,16.30
2014,08,11,02,06,16.30
2014,08,11,02,07,16.30
2014,08,11,02,08,16.20
2014,08,11,02,09,16.20
2014,08,11,02,10,16.20
2014,08,11,02,11,16.20
2014,08,11,02,12,16.20
2014,08,11,02,13,16.20
2014,08,11,02,14,16.20
2014,08,11,02,15,16.20
2014,08,11,02,16,16.20
2014,08,11,02,17,16.20
2014,08,11,02,18,16.20
2014,08,11,02,19,16.20
2014,08,11,02,20,16.20
2014,08,11,02,21,16.10
2014,08,11,02,22,16.10
2014,08,11,02,23,16.10
2014,08,11,02,24,16.10
2014,08,11,02,25,16.10
2014,08,11,02,26,16.10
2014,08,11,02,27,16.10
2014,08,11,02,28,16.10
2014,08,11,02,29,16.10
2014,08,11,02,30,16.10
2014,08,11,02,31,16.10
2014,08,11,02,32,16.10
2014,08,11,02,33,16.10
2014,08,11,02,34,16.10
2014,08,11,02,35,16.00
2014,08,11,02,36,16.00
2014,08,11,02,37,16.00
2014,08,11,02,38,16.00
2014,08,11,02,39,16.00
2014,08,11,02,40,15.90
2014,08,11,02,41,15.90
2014,08,11,02,42,15.90
2014,08,11,02,43,15.90
2014,08,11,02,44,15.90
2014,08,11,02,45,15.80
2014,08,11,02,46,15.80
2014,08,11,02,47,15.80
2014,08,11,02,48,15.80
2014,08,11,02,49,15.80
2014,08,11,02,50,15.80
2014,08,11,02,51,15.80
2014,08,11,02,52,15.80
2014,08,11,02,53,15.80
2014,08,11,02,54,15.80
2014,08,11,02,55,15.80
2014,08,11,02,56,15.80
2014,08,11,02,57,15.80
2014,08,11,02,58,15.80
2014,08,11,02,59,15.80
2014,08,11,03,00,15.80
2014,08,11,03,01,15.80
2014,08,11,03,02,15.80
2014,08,11,03,03,15.80
2014,08,11,03,04,15.80
2014,08,11,03,05,15.70
2014,08,11,03,06,15.70
2014,08,11,03,07,15.70
2014,08,11,03,08,15.70
2014,08,11,03,09,15.70
2014,08,11,03,10,15.70
2014,08,11,03,11,15.70
2014,08,11,03,12,15.70
2014,08,11,03,13,15.70
2014,08,11,03,14,15.70
2014,08,11,03,15,15.70
2014,08,11,03,16,15.70
2014,08,11,03,17,15.70
2014,08,11,03,18,15.70
2014,08,11,03,19,15.60
2014,08,11,03,20,15.60
2014,08,11,03,21,15.60
2014,08,11,03,22,15.60
2014,08,11,03,23,15.60
2014,08,11,03,24,15.60
2014,08,11,03,25,15.60
2014,08,11,03,26,15.60
2014,08,11,03,27,15.60
2014,08,11,03,28,15.60
2014,08,11,03,29,15.60
2014,08,11,03,30,15.60
2014,08,11,03,31,15.60
2014,08,11,03,32,15.60
2014,08,11,03,33,15.60
2014,08,11,03,34,15.60
2014,08,11,03,35,15.60
2014,08,11,03,36,15.60
2014,08,11,03,37,15.60
2014,08,11,03,38,15.50
2014,08,11,03,39,15.50
2014,08,11,03,40,15.50
2014,08,11,03,41,15.40
2014,08,11,03,42,15.40
2014,08,11,03,43,15.40
2014,08,11,03,44,15.40
2014,08,11,03,45,15.30
2014,08,11,03,46,15.30
2014,08,11,03,47,15.30
2014,08,11,03,48,15.30
2014,08,11,03,49,15.30
2014,08,11,03,50,15.30
2014,08,11,03,51,15.30
2014,08,11,03,52,15.30
2014,08,11,03,53,15.30
2014,08,11,03,54,15.30
2014,08,11,03,55,15.30
2014,08,11,03,56,15.30
2014,08,11,03,57,15.30
2014,08,11,03,58,15.30
2014,08,11,03,59,15.30
2014,08,11,04,00,15.20
2014,08,11,04,01,15.20
2014,08,11,04,02,15.20
2014,08,11,04,03,15.20
2014,08,11,04,04,15.20
2014,08,11,04,05,15.20
2014,08,11,04,06,15.20
2014,08,11,04,07,15.20
2014,08,11,04,08,15.20
2014,08,11,04,09,15.20
2014,08,11,04,10,15.20
2014,08,11,04,11,15.20
2014,08,11,04,12,15.20
2014,08,11,04,13,15.20
2014,08,11,04,14,15.10
2014,08,11,04,15,15.10
2014,08,11,04,16,15.10
2014,08,11,04,17,15.10
2014,08,11,04,18,15.10
2014,08,11,04,19,15.10
2014,08,11,04,20,15.00
2014,08,11,04,21,15.00
2014,08,11,04,22,15.00
2014,08,11,04,23,15.00
2014,08,11,04,24,15.00
2014,08,11,04,25,15.00
2014,08,11,04,26,15.00
2014,08,11,04,27,15.00
2014,08,11,04,28,15.00
2014,08,11,04,29,15.00
2014,08,11,04,30,15.00
2014,08,11,04,31,15.00
2014,08,11,04,32,15.00
2014,08,11,04,33,15.00
2014,08,11,04,34,15.00
2014,08,11,04,35,15.00
2014,08,11,04,36,15.00
2014,08,11,04,37,15.00
2014,08,11,04,38,15.00
2014,08,11,04,39,15.00
2014,08,11,04,40,14.90
2014,08,11,04,41,14.90
2014,08,11,04,42,14.90
2014,08,11,04,43,14.80
2014,08,11,04,44,14.80
2014,08,11,04,45,14.80
2014,08,11,04,46,14.80
2014,08,11,04,47,14.80
2014,08,11,04,48,14.80
2014,08,11,04,49,14.80
2014,08,11,04,50,14.80
2014,08,11,04,51,14.80
2014,08,11,04,52,14.80
2014,08,11,04,53,14.80
2014,08,11,04,54,14.80
2014,08,11,04,55,14.70
2014,08,11,04,56,14.70
2014,08,11,04,57,14.70
2014,08,11,04,58,14.70
2014,08,11,04,59,14.70
2014,08,11,05,00,14.60
2014,08,11,05,01,14.60
2014,08,11,05,02,14.60
2014,08,11,05,03,14.60
2014,08,11,05,04,14.60
2014,08,11,05,05,14.60
2014,08,11,05,06,14.60
2014,08,11,05,07,14.60
2014,08,11,05,08,14.60
2014,08,11,05,09,14.60
2014,08,11,05,10,14.60
2014,08,11,05,11,14.60
2014,08,11,05,12,14.50
2014,08,11,05,13,14.50
2014,08,11,05,14,14.50
2014,08,11,05,15,14.50
2014,08,11,05,16,14.50
2014,08,11,05,17,14.50
2014,08,11,05,18,14.50
2014,08,11,05,19,14.40
2014,08,11,05,20,14.40
2014,08,11,05,21,14.40
2014,08,11,05,22,14.40
2014,08,11,05,23,14.40
2014,08,11,05,24,14.40
2014,08,11,05,25,14.40
2014,08,11,05,26,14.40
2014,08,11,05,27,14.40
2014,08,11,05,28,14.40
2014,08,11,05,29,14.40
2014,08,11,05,30,14.40
2014,08,11,05,31,14.40
2014,08,11,05,32,14.40
2014,08,11,05,33,14.40
2014,08,11,05,34,14.40
2014,08,11,05,35,14.40
2014,08,11,05,36,14.40
2014,08,11,05,37,14.30
2014,08,11,05,38,14.30
2014,08,11,05,39,14.30
2014,08,11,05,40,14.30
2014,08,11,05,41,14.30
2014,08,11,05,42,14.30
2014,08,11,05,43,14.30
2014,08,11,05,44,14.30
2014,08,11,05,45,14.30
2014,08,11,05,46,14.40
2014,08,11,05,47,14.30
2014,08,11,05,48,14.40
2014,08,11,05,49,14.40
2014,08,11,05,50,14.40
2014,08,11,05,51,14.40
2014,08,11,05,52,14.40
2014,08,11,05,53,14.40
2014,08,11,05,54,14.30
2014,08,11,05,55,14.30
2014,08,11,05,56,14.30
2014,08,11,05,57,14.30
2014,08,11,05,58,14.30
2014,08,11,05,59,14.30
2014,08,11,06,00,14.30
2014,08,11,06,01,14.30
2014,08,11,06,02,14.30
2014,08,11,06,03,14.30
2014,08,11,06,04,14.30
2014,08,11,06,05,14.30
2014,08,11,06,06,14.30
2014,08,11,06,07,14.30
2014,08,11,06,08,14.30
2014,08,11,06,09,14.30
2014,08,11,06,10,14.30
2014,08,11,06,11,14.30
2014,08,11,06,12,14.30
2014,08,11,06,13,14.30
2014,08,11,06,14,14.30
2014,08,11,06,15,14.30
2014,08,11,06,16,14.30
2014,08,11,06,17,14.30
2014,08,11,06,18,14.30
2014,08,11,06,19,14.30
2014,08,11,06,20,14.30
2014,08,11,06,21,14.30
2014,08,11,06,22,14.30
2014,08,11,06,23,14.30
2014,08,11,06,24,14.30
2014,08,11,06,25,14.30
2014,08,11,06,26,14.30
2014,08,11,06,27,14.30
2014,08,11,06,28,14.30
2014,08,11,06,29,14.30
2014,08,11,06,30,14.30
2014,08,11,06,31,14.30
2014,08,11,06,32,14.30
2014,08,11,06,33,14.30
2014,08,11,06,34,14.30
2014,08,11,06,35,14.30
2014,08,11,06,36,14.30
2014,08,11,06,37,14.30
2014,08,11,06,38,14.30
2014,08,11,06,39,14.30
2014,08,11,06,40,14.30
2014,08,11,06,41,14.30
2014,08,11,06,42,14.30
2014,08,11,06,43,14.30
2014,08,11,06,44,14.30
2014,08,11,06,45,14.30
2014,08,11,06,46,14.30
2014,08,11,06,47,14.30
2014,08,11,06,48,14.30
2014,08,11,06,49,14.30
2014,08,11,06,50,14.30
2014,08,11,06,51,14.30
2014,08,11,06,52,14.30
2014,08,11,06,53,14.30
2014,08,11,06,54,14.30
2014,08,11,06,55,14.40
2014,08,11,06,56,14.40
2014,08,11,06,57,14.40
2014,08,11,06,58,14.40
2014,08,11,06,59,14.40
2014,08,11,07,00,14.40
2014,08,11,07,01,14.40
2014,08,11,07,02,14.40
2014,08,11,07,03,14.50
2014,08,11,07,04,14.50
2014,08,11,07,05,14.50
2014,08,11,07,06,14.60
2014,08,11,07,07,14.60
2014,08,11,07,08,14.60
2014,08,11,07,09,14.60
2014,08,11,07,10,14.60
2014,08,11,07,11,14.60
2014,08,11,07,12,14.60
2014,08,11,07,13,14.70
2014,08,11,07,14,14.70
2014,08,11,07,15,14.70
2014,08,11,07,16,14.70
2014,08,11,07,17,14.80
2014,08,11,07,18,14.80
2014,08,11,07,19,14.80
2014,08,11,07,20,14.90
2014,08,11,07,21,14.90
2014,08,11,07,22,15.00
2014,08,11,07,23,15.00
2014,08,11,07,24,15.00
2014,08,11,07,25,15.00
2014,08,11,07,26,15.00
2014,08,11,07,27,15.00
2014,08,11,07,28,15.00
2014,08,11,07,29,15.00
2014,08,11,07,30,15.00
2014,08,11,07,31,15.00
2014,08,11,07,32,15.10
2014,08,11,07,33,15.20
2014,08,11,07,34,15.20
2014,08,11,07,35,15.30
2014,08,11,07,36,15.30
2014,08,11,07,37,15.40
2014,08,11,07,38,15.50
2014,08,11,07,39,15.60
2014,08,11,07,40,15.70
2014,08,11,07,41,15.80
2014,08,11,07,42,15.80
2014,08,11,07,43,15.90
2014,08,11,07,44,16.00
2014,08,11,07,45,16.10
2014,08,11,07,46,16.20
2014,08,11,07,47,16.30
2014,08,11,07,48,16.40
2014,08,11,07,49,16.50
2014,08,11,07,50,16.60
2014,08,11,07,51,16.70
2014,08,11,07,52,16.80
2014,08,11,07,53,16.90
2014,08,11,07,54,17.10
2014,08,11,07,55,17.20
2014,08,11,07,56,17.40
2014,08,11,07,57,17.50
2014,08,11,07,58,17.60
2014,08,11,07,59,17.80
2014,08,11,08,00,17.90
2014,08,11,08,01,17.90
2014,08,11,08,02,18.00
2014,08,11,08,03,18.10
2014,08,11,08,04,18.20
2014,08,11,08,05,18.20
2014,08,11,08,06,18.30
2014,08,11,08,07,18.40
2014,08,11,08,08,18.40
2014,08,11,08,09,18.50
2014,08,11,08,10,18.60
2014,08,11,08,11,18.70
2014,08,11,08,12,18.70
2014,08,11,08,13,18.80
2014,08,11,08,14,18.90
2014,08,11,08,15,18.90
2014,08,11,08,16,19.10
2014,08,11,08,17,19.10
2014,08,11,08,18,19.20
2014,08,11,08,19,19.40
2014,08,11,08,20,19.50
2014,08,11,08,21,19.60
2014,08,11,08,22,19.70
2014,08,11,08,23,19.90
2014,08,11,08,24,20.00
2014,08,11,08,25,20.10
2014,08,11,08,26,20.20
2014,08,11,08,27,20.20
2014,08,11,08,28,20.30
2014,08,11,08,29,20.40
2014,08,11,08,30,20.40
2014,08,11,08,31,20.50
2014,08,11,08,32,20.60
2014,08,11,08,33,20.60
2014,08,11,08,34,20.80
2014,08,11,08,35,20.80
2014,08,11,08,36,21.00
2014,08,11,08,37,21.10
2014,08,11,08,38,21.10
2014,08,11,08,39,21.20
2014,08,11,08,40,21.30
2014,08,11,08,41,21.30
2014,08,11,08,42,21.40
2014,08,11,08,43,21.40
2014,08,11,08,44,21.40
2014,08,11,08,45,21.40
2014,08,11,08,46,21.40
2014,08,11,08,47,21.30
2014,08,11,08,48,21.30
2014,08,11,08,49,21.20
2014,08,11,08,50,21.20
2014,08,11,08,51,21.10
2014,08,11,08,52,21.10
2014,08,11,08,53,21.00
2014,08,11,08,54,21.00
2014,08,11,08,55,21.00
2014,08,11,08,56,21.00
2014,08,11,08,57,21.00
2014,08,11,08,58,21.00
2014,08,11,08,59,21.10
2014,08,11,09,00,21.10
2014,08,11,09,01,21.20
2014,08,11,09,02,21.20
2014,08,11,09,03,21.30
2014,08,11,09,04,21.30
2014,08,11,09,05,21.40
2014,08,11,09,06,21.50
2014,08,11,09,07,21.50
2014,08,11,09,08,21.60
2014,08,11,09,09,21.70
2014,08,11,09,10,21.70
2014,08,11,09,11,21.70
2014,08,11,09,12,21.80
2014,08,11,09,13,21.80
2014,08,11,09,14,21.80
2014,08,11,09,15,21.80
2014,08,11,09,16,21.80
2014,08,11,09,17,21.80
2014,08,11,09,18,21.80
2014,08,11,09,19,21.90
2014,08,11,09,20,21.90
2014,08,11,09,21,22.00
2014,08,11,09,22,22.00
2014,08,11,09,23,22.10
2014,08,11,09,24,22.20
2014,08,11,09,25,22.30
2014,08,11,09,26,22.30
2014,08,11,09,27,22.40
2014,08,11,09,28,22.50
2014,08,11,09,29,22.60
2014,08,11,09,30,22.60
2014,08,11,09,31,22.70
2014,08,11,09,32,22.80
2014,08,11,09,33,22.80
2014,08,11,09,34,22.90
2014,08,11,09,35,22.90
2014,08,11,09,36,23.00
2014,08,11,09,37,23.00
2014,08,11,09,38,23.00
2014,08,11,09,39,23.00
2014,08,11,09,40,23.10
2014,08,11,09,41,23.10
2014,08,11,09,42,23.10
2014,08,11,09,43,23.10
2014,08,11,09,44,23.20
2014,08,11,09,45,23.20
2014,08,11,09,46,23.20
2014,08,11,09,47,23.20
2014,08,11,09,48,23.20
2014,08,11,09,49,23.30
2014,08,11,09,50,23.30
2014,08,11,09,51,23.40
2014,08,11,09,52,23.40
2014,08,11,09,53,23.50
2014,08,11,09,54,23.50
2014,08,11,09,55,23.60
2014,08,11,09,56,23.60
2014,08,11,09,57,23.60
2014,08,11,09,58,23.60
2014,08,11,09,59,23.60
2014,08,11,10,00,23.70
2014,08,11,10,01,23.70
2014,08,11,10,02,23.70
2014,08,11,10,03,23.70
2014,08,11,10,04,23.70
2014,08,11,10,05,23.70
2014,08,11,10,06,23.60
2014,08,11,10,07,23.70
2014,08,11,10,08,23.60
2014,08,11,10,09,23.70
2014,08,11,10,10,23.70
2014,08,11,10,11,23.70
2014,08,11,10,12,23.70
2014,08,11,10,13,23.70
2014,08,11,10,14,23.70
2014,08,11,10,15,23.70
2014,08,11,10,16,23.80
2014,08,11,10,17,23.80
2014,08,11,10,18,23.90
2014,08,11,10,19,23.90
2014,08,11,10,20,24.00
2014,08,11,10,21,24.10
2014,08,11,10,22,24.10
2014,08,11,10,23,24.10
2014,08,11,10,24,24.10
2014,08,11,10,25,24.10
2014,08,11,10,26,24.10
2014,08,11,10,27,24.00
2014,08,11,10,28,23.90
2014,08,11,10,29,23.90
2014,08,11,10,30,23.90
2014,08,11,10,31,23.90
2014,08,11,10,32,23.90
2014,08,11,10,33,23.90
2014,08,11,10,34,24.00
2014,08,11,10,35,24.00
2014,08,11,10,36,24.10
2014,08,11,10,37,24.10
2014,08,11,10,38,24.20
2014,08,11,10,39,24.20
2014,08,11,10,40,24.30
2014,08,11,10,41,24.30
2014,08,11,10,42,24.40
2014,08,11,10,43,24.40
2014,08,11,10,44,24.50
2014,08,11,10,45,24.50
2014,08,11,10,46,24.60
2014,08,11,10,47,24.60
2014,08,11,10,48,24.70
2014,08,11,10,49,24.70
2014,08,11,10,50,24.80
2014,08,11,10,51,24.80
2014,08,11,10,52,24.80
2014,08,11,10,53,24.80
2014,08,11,10,54,24.80
2014,08,11,10,55,24.80
2014,08,11,10,56,24.80
2014,08,11,10,57,24.80
2014,08,11,10,58,24.90
2014,08,11,10,59,24.90
2014,08,11,11,00,25.00
2014,08,11,11,01,25.00
2014,08,11,11,02,25.10
2014,08,11,11,03,25.20
2014,08,11,11,04,25.20
2014,08,11,11,05,25.30
2014,08,11,11,06,25.30
2014,08,11,11,07,25.30
2014,08,11,11,08,25.40
2014,08,11,11,09,25.40
2014,08,11,11,10,25.40
2014,08,11,11,11,25.40
2014,08,11,11,12,25.40
2014,08,11,11,13,25.40
2014,08,11,11,14,25.40
2014,08,11,11,15,25.40
2014,08,11,11,16,25.40
2014,08,11,11,17,25.50
2014,08,11,11,18,25.50
2014,08,11,11,19,25.50
2014,08,11,11,20,25.50
2014,08,11,11,21,25.60
2014,08,11,11,22,25.60
2014,08,11,11,23,25.60
2014,08,11,11,24,25.70
2014,08,11,11,25,25.70
2014,08,11,11,26,25.70
2014,08,11,11,27,25.80
2014,08,11,11,28,25.80
2014,08,11,11,29,25.80
2014,08,11,11,30,25.90
2014,08,11,11,31,25.90
2014,08,11,11,32,25.90
2014,08,11,11,33,25.90
2014,08,11,11,34,25.90
2014,08,11,11,35,25.90
2014,08,11,11,36,25.90
2014,08,11,11,37,25.90
2014,08,11,11,38,26.00
2014,08,11,11,39,26.00
2014,08,11,11,40,26.10
2014,08,11,11,41,26.10
2014,08,11,11,42,26.20
2014,08,11,11,43,26.20
2014,08,11,11,44,26.20
2014,08,11,11,45,26.30
2014,08,11,11,46,26.30
2014,08,11,11,47,26.30
2014,08,11,11,48,26.30
2014,08,11,11,49,26.30
2014,08,11,11,50,26.30
2014,08,11,11,51,26.30
2014,08,11,11,52,26.40
2014,08,11,11,53,26.40
2014,08,11,11,54,26.50
2014,08,11,11,55,26.50
2014,08,11,11,56,26.50
2014,08,11,11,57,26.60
2014,08,11,11,58,26.60
2014,08,11,11,59,26.70
2014,08,11,12,00,26.70
2014,08,11,12,01,26.80
2014,08,11,12,02,26.80
2014,08,11,12,03,26.80
2014,08,11,12,04,26.80
2014,08,11,12,05,26.90
2014,08,11,12,06,26.90
2014,08,11,12,07,26.90
2014,08,11,12,08,26.90
2014,08,11,12,09,26.90
2014,08,11,12,10,26.80
2014,08,11,12,11,26.80
2014,08,11,12,12,26.80
2014,08,11,12,13,26.80
2014,08,11,12,14,26.90
2014,08,11,12,15,26.90
2014,08,11,12,16,27.00
2014,08,11,12,17,27.10
2014,08,11,12,18,27.10
2014,08,11,12,19,27.20
2014,08,11,12,20,27.20
2014,08,11,12,21,27.30
2014,08,11,12,22,27.30
2014,08,11,12,23,27.30
2014,08,11,12,24,27.30
2014,08,11,12,25,27.30
2014,08,11,12,26,27.30
2014,08,11,12,27,27.30
2014,08,11,12,28,27.30
2014,08,11,12,29,27.40
2014,08,11,12,30,27.50
2014,08,11,12,31,27.60
2014,08,11,12,32,27.60
2014,08,11,12,33,27.60
2014,08,11,12,34,27.60
2014,08,11,12,35,27.60
2014,08,11,12,36,27.50
2014,08,11,12,37,27.50
2014,08,11,12,38,27.50
2014,08,11,12,39,27.50
2014,08,11,12,40,27.60
2014,08,11,12,41,27.60
2014,08,11,12,42,27.60
2014,08,11,12,43,27.70
2014,08,11,12,44,27.70
2014,08,11,12,45,27.80
2014,08,11,12,46,27.80
2014,08,11,12,47,27.80
2014,08,11,12,48,27.90
2014,08,11,12,49,28.00
2014,08,11,12,50,28.00
2014,08,11,12,51,28.10
2014,08,11,12,52,28.10
2014,08,11,12,53,28.10
2014,08,11,12,54,28.10
2014,08,11,12,55,28.10
2014,08,11,12,56,28.10
2014,08,11,12,57,28.10
2014,08,11,12,58,28.10
2014,08,11,12,59,28.10
2014,08,11,13,00,28.20
2014,08,11,13,01,28.20
2014,08,11,13,02,28.30
2014,08,11,13,03,28.30
2014,08,11,13,04,28.30
2014,08,11,13,05,28.30
2014,08,11,13,06,28.30
2014,08,11,13,07,28.30
2014,08,11,13,08,28.40
2014,08,11,13,09,28.40
2014,08,11,13,10,28.30
2014,08,11,13,11,28.30
2014,08,11,13,12,28.30
2014,08,11,13,13,28.40
2014,08,11,13,14,28.40
2014,08,11,13,15,28.40
2014,08,11,13,16,28.40
2014,08,11,13,17,28.40
2014,08,11,13,18,28.50
2014,08,11,13,19,28.50
2014,08,11,13,20,28.60
2014,08,11,13,21,28.70
2014,08,11,13,22,28.70
2014,08,11,13,23,28.70
2014,08,11,13,24,28.80
2014,08,11,13,25,28.80
2014,08,11,13,26,28.90
2014,08,11,13,27,28.90
2014,08,11,13,28,28.90
2014,08,11,13,29,28.90
2014,08,11,13,30,28.90
2014,08,11,13,31,29.00
2014,08,11,13,32,29.00
2014,08,11,13,33,29.00
2014,08,11,13,34,29.00
2014,08,11,13,35,29.00
2014,08,11,13,36,29.00
2014,08,11,13,37,29.00
2014,08,11,13,38,29.10
2014,08,11,13,39,29.10
2014,08,11,13,40,29.20
2014,08,11,13,41,29.20
2014,08,11,13,42,29.30
2014,08,11,13,43,29.30
2014,08,11,13,44,29.20
2014,08,11,13,45,29.20
2014,08,11,13,46,29.10
2014,08,11,13,47,29.10
2014,08,11,13,48,29.10
2014,08,11,13,49,29.10
2014,08,11,13,50,29.10
2014,08,11,13,51,29.10
2014,08,11,13,52,29.20
2014,08,11,13,53,29.20
2014,08,11,13,54,29.20
2014,08,11,13,55,29.20
2014,08,11,13,56,29.30
2014,08,11,13,57,29.20
2014,08,11,13,58,29.30
2014,08,11,13,59,29.30
2014,08,11,14,00,29.30
2014,08,11,14,01,29.30
2014,08,11,14,02,29.30
2014,08,11,14,03,29.30
2014,08,11,14,04,29.40
2014,08,11,14,05,29.40
2014,08,11,14,06,29.40
2014,08,11,14,07,29.40
2014,08,11,14,08,29.40
2014,08,11,14,09,29.40
2014,08,11,14,10,29.40
2014,08,11,14,11,29.40
2014,08,11,14,12,29.40
2014,08,11,14,13,29.40
2014,08,11,14,14,29.40
2014,08,11,14,15,29.40
2014,08,11,14,16,29.40
2014,08,11,14,17,29.40
2014,08,11,14,18,29.40
2014,08,11,14,19,29.40
2014,08,11,14,20,29.50
2014,08,11,14,21,29.40
2014,08,11,14,22,29.40
2014,08,11,14,23,29.40
2014,08,11,14,24,29.40
2014,08,11,14,25,29.40
2014,08,11,14,26,29.30
2014,08,11,14,27,29.30
2014,08,11,14,28,29.30
2014,08,11,14,29,29.20
2014,08,11,14,30,29.20
2014,08,11,14,31,29.20
2014,08,11,14,32,29.20
2014,08,11,14,33,29.20
2014,08,11,14,34,29.30
2014,08,11,14,35,29.30
2014,08,11,14,36,29.30
2014,08,11,14,37,29.30
2014,08,11,14,38,29.30
2014,08,11,14,39,29.30
2014,08,11,14,40,29.30
2014,08,11,14,41,29.30
2014,08,11,14,42,29.30
2014,08,11,14,43,29.20
2014,08,11,14,44,29.20
2014,08,11,14,45,29.20
2014,08,11,14,46,29.20
2014,08,11,14,47,29.20
2014,08,11,14,48,29.20
2014,08,11,14,49,29.20
2014,08,11,14,50,29.30
2014,08,11,14,51,29.30
2014,08,11,14,52,29.30
2014,08,11,14,53,29.30
2014,08,11,14,54,29.40
2014,08,11,14,55,29.40
2014,08,11,14,56,29.50
2014,08,11,14,57,29.50
2014,08,11,14,58,29.60
2014,08,11,14,59,29.50
2014,08,11,15,00,29.50
2014,08,11,15,01,29.40
2014,08,11,15,02,29.40
2014,08,11,15,03,29.40
2014,08,11,15,04,29.40
2014,08,11,15,05,29.40
2014,08,11,15,06,29.50
2014,08,11,15,07,29.50
2014,08,11,15,08,29.50
2014,08,11,15,09,29.50
2014,08,11,15,10,29.60
2014,08,11,15,11,29.60
2014,08,11,15,12,29.60
2014,08,11,15,13,29.60
2014,08,11,15,14,29.70
2014,08,11,15,15,29.70
2014,08,11,15,16,29.60
2014,08,11,15,17,29.70
2014,08,11,15,18,29.70
2014,08,11,15,19,29.70
2014,08,11,15,20,29.70
2014,08,11,15,21,29.70
2014,08,11,15,22,29.70
2014,08,11,15,23,29.70
2014,08,11,15,24,29.70
2014,08,11,15,25,29.70
2014,08,11,15,26,29.70
2014,08,11,15,27,29.70
2014,08,11,15,28,29.70
2014,08,11,15,29,29.80
2014,08,11,15,30,29.80
2014,08,11,15,31,29.80
2014,08,11,15,32,29.70
2014,08,11,15,33,29.70
2014,08,11,15,34,29.70
2014,08,11,15,35,29.70
2014,08,11,15,36,29.70
2014,08,11,15,37,29.70
2014,08,11,15,38,29.70
2014,08,11,15,39,29.70
2014,08,11,15,40,29.60
2014,08,11,15,41,29.60
2014,08,11,15,42,29.50
2014,08,11,15,43,29.50
2014,08,11,15,44,29.50
2014,08,11,15,45,29.60
2014,08,11,15,46,29.60
2014,08,11,15,47,29.60
2014,08,11,15,48,29.70
2014,08,11,15,49,29.60
2014,08,11,15,50,29.50
2014,08,11,15,51,29.40
2014,08,11,15,52,29.30
2014,08,11,15,53,29.30
2014,08,11,15,54,29.30
2014,08,11,15,55,29.30
2014,08,11,15,56,29.30
2014,08,11,15,57,29.30
2014,08,11,15,58,29.30
2014,08,11,15,59,29.30
2014,08,11,16,00,29.30
2014,08,11,16,01,29.30
2014,08,11,16,02,29.40
2014,08,11,16,03,29.40
2014,08,11,16,04,29.40
2014,08,11,16,05,29.40
2014,08,11,16,06,29.40
2014,08,11,16,07,29.40
2014,08,11,16,08,29.40
2014,08,11,16,09,29.40
2014,08,11,16,10,29.40
2014,08,11,16,11,29.40
2014,08,11,16,12,29.40
2014,08,11,16,13,29.40
2014,08,11,16,14,29.40
2014,08,11,16,15,29.40
2014,08,11,16,16,29.40
2014,08,11,16,17,29.40
2014,08,11,16,18,29.50
2014,08,11,16,19,29.50
2014,08,11,16,20,29.50
2014,08,11,16,21,29.60
2014,08,11,16,22,29.60
2014,08,11,16,23,29.70
2014,08,11,16,24,29.70
2014,08,11,16,25,29.70
2014,08,11,16,26,29.70
2014,08,11,16,27,29.70
2014,08,11,16,28,29.60
2014,08,11,16,29,29.60
2014,08,11,16,30,29.60
2014,08,11,16,31,29.60
2014,08,11,16,32,29.60
2014,08,11,16,33,29.70
2014,08,11,16,34,29.70
2014,08,11,16,35,29.70
2014,08,11,16,36,29.60
2014,08,11,16,37,29.60
2014,08,11,16,38,29.60
2014,08,11,16,39,29.60
2014,08,11,16,40,29.70
2014,08,11,16,41,29.60
2014,08,11,16,42,29.60
2014,08,11,16,43,29.60
2014,08,11,16,44,29.70
2014,08,11,16,45,29.70
2014,08,11,16,46,29.80
2014,08,11,16,47,29.80
2014,08,11,16,48,29.90
2014,08,11,16,49,30.00
2014,08,11,16,50,30.10
2014,08,11,16,51,30.20
2014,08,11,16,52,30.20
2014,08,11,16,53,30.30
2014,08,11,16,54,30.30
2014,08,11,16,55,30.40
2014,08,11,16,56,30.50
2014,08,11,16,57,30.50
2014,08,11,16,58,30.60
2014,08,11,16,59,30.60
2014,08,11,17,00,30.60
2014,08,11,17,01,30.70
2014,08,11,17,02,30.80
2014,08,11,17,03,30.90
2014,08,11,17,04,30.90
2014,08,11,17,05,31.00
2014,08,11,17,06,31.00
2014,08,11,17,07,30.90
2014,08,11,17,08,30.90
2014,08,11,17,09,30.90
2014,08,11,17,10,30.80
2014,08,11,17,11,30.90
2014,08,11,17,12,30.90
2014,08,11,17,13,31.00
2014,08,11,17,14,31.10
2014,08,11,17,15,31.10
2014,08,11,17,16,31.10
2014,08,11,17,17,31.20
2014,08,11,17,18,31.20
2014,08,11,17,19,31.20